Location: Drocourt
(49.0571°N, 1.7669°E)
Time: 21:13:31
(UTC+00:00)

Transit 4A - Pass Details

Date: 13 April 2024
Orbit: 871 x 971 km, 66.8° (Epoch: 18 May)

Event Time Altitude Azimuth Distance (km) Brightness Sun altitude
Rises 15:47:58 0° 245° (WSW) 3,530 12.2 27.4°
Reaches altitude 10° 15:50:43 10° 254° (WSW) 2,576 12.1 26.9°
Maximum altitude 15:56:08 35° 320° (NW) 1,393 9.4 26.1°
Drops below altitude 10° 16:01:30 10° 26° (NNE) 2,541 9.9 25.2°
Sets 16:04:12 0° 35° (NE) 3,475 10.5 24.8°
